Powrót do katalogu

NOAA 16 DEB

AktywnyPO
NORAD 41086·DEBRIS·🇺🇸 United States

Wystrzelony Sep 21, 2000 z Vandenberg Space Force Base

Loading…

Następne Przeloty (najbliższe 24 godziny)

TLE

ŚwieżeSource: Space-Track

Epoka: Sep 13, 2026, 11:26 UTC

1 41086U 00055AV  26256.47665185  .00009017  00000-0  14501-2 0  9992
2 41086  98.8186  79.0659 0026538  58.5649 301.8145 14.71584470564714

Śledź NOAA 16 DEB w czasie rzeczywistym z AllMySat

Download on the App Store